Location: Lecco
(45.8566°N, 9.3977°E)
Time: 11:33:56
(UTC+02:00)

Vanguard 2 Rocket - Pass Details

Date: 18 August 2020
Orbit: 554 x 3326 km, 32.9° (Epoch: 24 September)

Event Time Altitude Azimuth Distance (km) Brightness Sun altitude
Rises 21:41:40 0° 257° (WSW) 3,801 10.8 -12.7°
Reaches altitude 10° 21:44:51 10° 239° (WSW) 3,208 10.0 -13.2°
Maximum altitude 21:50:20 19° 197° (SSW) 3,153 9.5 -14.0°
Enters shadow 21:57:51 10° 158° (SSE) 4,624 10.0 -15.0°
Drops below altitude 10° 21:57:55 10° 158° (SSE) 4,640 - -15.0°
Sets 22:04:02 0° 144° (SE) 6,209 - -15.9°
